This is the latest recevied weather packets stored in our database for station/object SP1BMW-13. If no packets are shown the sender has not sent any weather packets the latest 10 day(s).
| Time | Temp. | Humidity | Pressure | Rain* | Wind** | Luminosity | Snow |
|---|---|---|---|---|---|---|---|
| 1787921658 | 23.89° C | 54% | 1009.2 hPa | 0 mm | 1.79 m/s, 67° | 257 W/m² | - |
| 1787921598 | 23.89° C | 54% | 1009.3 hPa | 0 mm | 1.34 m/s, 38° | 249 W/m² | - |
| 1787921538 | 23.89° C | 55% | 1009.3 hPa | 0 mm | 0.89 m/s, 81° | 251 W/m² | - |
| 1787921478 | 23.89° C | 55% | 1009 hPa | 0 mm | 0.89 m/s, 146° | 254 W/m² | - |
| 1787921418 | 23.89° C | 55% | 1009.1 hPa | 0 mm | 1.79 m/s, 48° | 252 W/m² | - |
| 1787921359 | 23.89° C | 54% | 1009.3 hPa | 0 mm | 1.34 m/s, 5° | 246 W/m² | - |
| 1787921298 | 23.89° C | 55% | 1009.2 hPa | 0 mm | 1.34 m/s, 24° | 245 W/m² | - |
| 1787921238 | 23.89° C | 54% | 1009.4 hPa | 0 mm | 0.89 m/s, 16° | 235 W/m² | - |
| 1787921178 | 23.89° C | 54% | 1009.5 hPa | 0 mm | 1.34 m/s, 42° | 230 W/m² | - |
| 1787921118 | 23.89° C | 55% | 1009.2 hPa | 0 mm | 1.34 m/s, 132° | 226 W/m² | - |
| 1787921058 | 23.33° C | 55% | 1009.2 hPa | 0 mm | 2.24 m/s, 63° | 229 W/m² | - |
| 1787920998 | 23.33° C | 55% | 1009.2 hPa | 0 mm | 1.34 m/s, 29° | 233 W/m² | - |
| 1787920938 | 23.33° C | 55% | 1009.1 hPa | 0 mm | 0.89 m/s, 24° | 236 W/m² | - |
| 1787920878 | 23.33° C | 55% | 1009.1 hPa | 0 mm | 1.34 m/s, 118° | 235 W/m² | - |
| 1787920818 | 23.33° C | 55% | 1009.2 hPa | 0 mm | 0.89 m/s, 125° | 229 W/m² | - |
| 1787920758 | 23.33° C | 55% | 1009.2 hPa | 0 mm | 0.89 m/s, 110° | 211 W/m² | - |
| 1787920698 | 23.33° C | 55% | 1009.3 hPa | 0 mm | 1.79 m/s, 47° | 198 W/m² | - |
| 1787920638 | 23.33° C | 55% | 1009 hPa | 0 mm | 0.89 m/s, 34° | 180 W/m² | - |
| 1787920578 | 23.33° C | 55% | 1009.1 hPa | 0 mm | 0.89 m/s, 109° | 169 W/m² | - |
| 1787920518 | 23.33° C | 54% | 1009 hPa | 0 mm | 0.89 m/s, 46° | 153 W/m² | - |
| 1787920458 | 23.33° C | 55% | 1009.3 hPa | 0 mm | 1.34 m/s, 54° | 142 W/m² | - |
| 1787920398 | 23.33° C | 55% | 1009.1 hPa | 0 mm | 0.89 m/s, 44° | 135 W/m² | - |
| 1787920338 | 23.33° C | 56% | 1009.1 hPa | 0 mm | 0.45 m/s, 305° | 132 W/m² | - |
| 1787920278 | 23.33° C | 56% | 1009.1 hPa | 0 mm | 0.45 m/s, 33° | 131 W/m² | - |
| 1787920218 | 23.33° C | 56% | 1008.9 hPa | 0 mm | 0.89 m/s, 96° | 134 W/m² | - |
* Rain latest hour (hover to see other rain measurements)
** Current wind speed in m/s (hover to see current wind gust speed)